Погода в Лунево

Россия / Калужская область     54°35′03″N   35°11′56″E
темп.,
°C
ветер,
м/с
пор.,
м/с
влажн.,
%
обл.,
%
осадки,
мм/ч
давл.,
гПа
погр.,
м
11 мая, вт
вт1100:00+5св36800 0.0 102790
03:00+4ссв47840 0.0 1027109
06:00+5ссв411840 0.0 1027239
09:00+11св69660 0.0 1026548
12:00+16св68590 0.0 1024759
15:00+18всв68580 0.0 10241053
18:00+18всв58710 0.0 1023981
21:00+12вюв379592 0.3 1024152
12 мая, ср
ср1200:00+9юв399537 0.0 1026230
03:00+6юв37940 0.0 1026143
06:00+6юв259212 0.0 1027144
09:00+11в2369100 0.0 1026540
12:00+9св3587100 0.4 1024329
15:00+9ссз41091100 1.6 1019363
18:00+12вюв61294100 8.4 1014972
21:00+6юв6119584 8.7 1018519
13 мая, чт
чт1300:00+5в41197100 0.0 1019275
03:00+7вюв6149475 0.3 1017531
06:00+7юв61296100 0.0 1018534
09:00+10ююв6881100 0.0 1018761
12:00+15юв586031 0.0 10171692
15:00+16ююв48588 0.1 10161757
18:00+15юв46712 0.0 1015863
21:00+11юв489193 0.0 1015129
14 мая, пт
пт1400:00+9ююв36954 0.0 1015113
03:00+8юв3495100 0.0 101560
06:00+10вюв3694100 0.0 1015134
09:00+12вюв489797 0.8 1014214
12:00+18юв71079100 0.7 10141076
15:00+20ююв7107512 3.6 10121168
18:00+19ююв588166 2.8 1011696
21:00+15ю3392100 3.2 101144
15 мая, сб
сб1500:00+14ююз229429 0.0 101118
03:00+13юв2294100 0.0 101125
06:00+14ююв2296100 0.6 100954
09:00+17ююв3888100 2.9 1009371
12:00+15ююв3693100 3.4 1009226
15:00+18зюз23794 5.0 1008558
18:00+18св0181100 2.1 100825
21:00+14юв2291100 4.1 100716